Location: Huberhof
(49.2050°N, 7.4980°E)
Time: 01:19:34
(UTC+00:00)

MOS 1 Rocket - Pass Details

Date: 29 October 2020
Orbit: 615 x 829 km, 97.4° (Epoch: 26 November)

Event Time Altitude Azimuth Distance (km) Brightness Sun altitude
Rises 18:01:10 0° 17° (NNE) 3,040 6.4 -18.1°
Reaches altitude 10° 18:03:26 10° 23° (NNE) 2,152 5.6 -18.5°
Maximum altitude 18:08:01 48° 99° (E) 935 3.5 -19.2°
Drops below altitude 10° 18:12:50 10° 174° (S) 2,269 5.9 -20.0°
Sets 18:15:16 0° 179° (S) 3,223 6.7 -20.4°
